Location: Anan
(43.3550°N, 0.8171°E)
Time: 08:09:59
(UTC+00:00)

Okean-O - Pass Details

Date: 14 May 2026
Orbit: 627 x 629 km, 97.9° (Epoch: 5 June)

Event Time Altitude Azimuth Distance (km) Brightness Sun altitude
Exits shadow 19:55:01 - 123° (ESE) 2,070 4.5 -7.4°
Reaches altitude 10° 19:55:13 10° 122° (ESE) 2,004 4.5 -7.4°
Maximum altitude 19:58:47 25° 67° (ENE) 1,268 3.9 -7.9°
Drops below altitude 10° 20:02:22 10° 12° (NNE) 2,015 5.5 -8.4°
Sets 20:04:51 0° 359° (N) 2,926 6.6 -8.8°
